EHI
0 0 1 1 1 1 1 1 2 2 3 2 1 0 0 0 0 0 0 0 1 4 5 3 1 0 0 0 0 0 0 0 0 0 0 0 0 0 0 0 0 0 0
0 0 0 0 1 2 2 1 1 1 2 2 1 0 0 0 0 0 0 0 0 2 4 3 1 0 0 0 0 0 0 0 0 0 0 0 0 0 0 0 0 0 0
0 0 0 0 1 2 3 2 1 1 1 1 0 0 0 0 0 0 0 0 0 1 3 3 1 0 0 0 0 0 0 0 0 0 0 0 0 0 0 0 0 0 0
0 0 0 0 0 1 2 2 2 2 1 0 0 0 0 0 0 0 0 0 0 0 1 1 0 0 0 0 0 0 0 0 0 0 0 0 0 0 0 0 0 0 0
0 0 0 0 0 0 1 1 3 2 1 0 0 0 0 0 0 0 0 0 0 0 0 0 0 0 0 0 0 0 0 0 0 0 0 0 0 0 0 0 0 0 0
0 0 0 0 0 0 0 1 2 2 1 0 0 0 0 0 0 0 0 0 0 0 0 0 0 0 0 0 0 0 0 0 0 0 0 0 0 0 0 0 0 0 0
0 0 0 0 0 0 0 1 2 1 0 0 0 0 0 0 0 0 0 0 0 0 0 0 0 0 0 0 0 0 0 0 0 0 0 0 0 0 0 0 0 0 0
0 0 0 0 0 0 0 1 1 1 0 0 0 0 0 0 0 0 0 0 0 0 0 0 0 0 0 0 0 0 0 0 0 0 0 0 0 0 0 0 0 0 0
0 0 0 0 0 0 0 0 0 0 0 0 0 0 0 0 0 0 0 0 0 0 0 0 0 0 0 0 0 0 0 0 0 0 0 0 0 0 0 0 0 0 0
0 0 0 0 0 0 0 0 0 0 0 0 0 0 0 0 0 0 0 0 0 0 0 0 0 0 0 0 0 0 0 0 0 0 0 0 0 0 0 0 0 0 0
0 0 0 0 0 0 0 0 0 0 0 0 0 0 0 0 0 0 0 0 0 0 0 0 0 0 0 0 0 0 0 0 0 0 0 0 0 0 0 0 0 0 0
0 0 0 0 0 0 0 0 0 0 0 0 0 0 0 0 0 0 0 0 0 0 0 0 0 0 0 0 0 0 0 0 0 0 0 0 0 0 0 0 0 0 0
0 0 0 0 0 0 0 0 0 0 0 0 0 0 0 0 0 0 0 0 0 0 0 0 0 0 0 0 0 0 0 0 0 0 0 0 0 0 0 0 0 0 0
0 0 0 0 0 0 0 0 0 0 0 0 0 0 0 0 0 0 0 0 0 0 0 0 0 0 0 0 0 0 0 0 0 0 0 0 0 0 0 0 0 0 0
0 0 0 0 0 0 0 0 0 0 0 0 0 0 0 0 0 0 0 0 0 0 0 0 0 0 0 0 0 0 0 0 0 0 0 0 0 0 0 0 0 0 0
0 0 0 0 0 0 0 0 0 0 0 0 0 0 0 0 0 0 0 0 0 0 0 0 0 0 0 0 0 0 0 0 0 0 0 0 0 0 0 0 0 0 0
0 0 0 0 0 0 0 0 0 0 0 0 0 0 0 0 0 0 0 0 0 0 0 0 0 0 0 0 0 0 0 0 0 0 0 0 0 0 0 0 0 0 0
0 0 0 0 0 0 0 0 0 0 0 0 0 0 0 0 0 0 0 0 0 0 0 0 0 0 0 0 0 0 0 0 0 0 0 0 0 0 0 0 0 0 0
0 0 0 0 0 0 0 0 0 0 0 0 0 0 0 0 0 0 0 0 0 0 0 0 0 0 0 0 0 0 0 0 0 0 0 0 0 0 0 0 0 0 0
0 0 0 0 0 0 0 0 0 0 0 0 0 0 0 0 0 0 0 0 0 0 0 0 0 0 0 0 0 0 0 0 0 0 0 0 0 0 0 0 0 0 0
0 0 0 0 0 0 0 0 0 0 0 0 0 0 0 0 0 0 0 0 0 0 0 0 0 0 0 0 0 0 0 0 0 0 0 0 0 0 0 0 0 0 0
0 0 0 0 0 0 0 0 0 0 0 0 0 0 0 0 0 0 0 0 0 0 0 0 0 0 0 0 0 0 0 0 0 0 0 0 0 0 0 0 0 0 0
0 0 0 0 0 0 0 0 0 0 0 0 0 0 0 0 0 0 0 0 0 0 0 0 0 0 0 0 0 0 0 0 0 0 0 0 0 0 0 0 0 0 0
0 0 0 0 0 0 0 0 0 0 0 0 0 0 0 0 0 0 0 0 0 0 0 0 0 0 0 0 0 0 0 0 0 0 0 0 0 0 0 0 0 0 0
0 0 0 0 0 0 0 0 0 0 0 0 0 0 0 0 0 0 0 0 0 0 0 0 0 0 0 0 0 0 0 0 0 0 0 0 0 0 0 0 0 0 0
0 0 0 0 0 0 0 0 0 0 0 0 0 0 0 0 0 0 0 0 0 0 0 0 0 0 0 0 0 0 0 0 0 0 0 0 0 0 0 0 0 0 0
Wind_Speed
2 2 2 2 2 2 2 2 3 4 5 6 6 6 6 6 5 5 4 11 14 15 17 17 17 16 15 15 15 14 13 12 11 11 10 9 9 8 8 7 7 7 6
2 2 3 3 3 3 3 3 4 4 4 5 6 6 7 6 6 5 5 7 12 15 17 18 17 17 17 16 16 15 14 14 13 12 11 10 10 9 8 8 8 7 7
3 3 3 3 3 3 3 3 4 3 4 4 5 6 5 6 5 5 5 5 7 12 15 17 17 17 17 17 17 16 15 14 14 13 12 11 10 10 9 9 8 8 8
4 3 3 4 4 3 3 3 4 3 4 4 4 5 5 4 6 6 5 6 6 7 11 15 17 17 18 18 18 17 16 15 15 14 13 12 11 10 10 9 8 8 8
4 4 4 4 4 3 3 4 4 4 4 4 4 4 4 4 5 6 6 7 7 7 7 11 15 16 17 18 18 17 16 15 15 14 14 13 12 11 10 10 9 9 9
5 4 4 5 5 4 4 4 5 4 4 4 4 4 4 4 4 5 7 7 7 8 8 8 8 10 15 17 17 17 17 16 16 15 14 13 12 11 11 10 10 10 10
5 5 5 5 5 5 5 5 4 5 4 3 2 2 3 4 5 5 5 5 7 7 8 8 8 7 7 14 16 17 17 17 15 15 14 13 13 12 11 10 10 10 10
6 6 5 5 5 5 6 6 5 4 4 4 3 1 2 3 4 5 4 5 6 5 7 8 8 8 7 6 9 15 16 17 16 15 14 14 13 12 12 11 10 10 10
6 7 7 6 6 6 6 6 6 6 5 5 4 4 3 4 2 3 5 5 6 5 6 7 9 9 8 7 7 12 14 16 17 16 15 14 13 12 11 11 10 10 9
7 7 8 7 7 6 6 7 7 6 6 6 5 4 4 3 3 3 3 5 6 7 7 7 8 8 8 7 8 12 14 15 16 16 15 14 13 13 11 10 9 8 8
7 8 8 7 7 7 7 7 7 7 6 7 6 4 4 3 3 3 4 5 5 6 6 7 7 7 8 7 7 11 15 15 16 15 14 14 14 13 11 9 8 8 8
6 7 7 7 8 7 7 7 7 8 8 8 7 6 5 5 5 3 3 5 6 5 6 6 7 7 7 7 9 13 15 15 15 13 12 12 12 11 10 9 8 8 8
6 7 7 7 7 7 7 7 8 8 9 9 9 7 6 6 5 4 4 4 4 3 4 5 6 6 7 6 7 13 14 15 14 13 11 10 9 9 8 8 8 8 8
6 7 8 8 8 8 9 8 7 8 8 9 10 9 7 6 6 5 5 4 4 3 4 5 4 7 6 6 8 12 10 14 13 12 11 9 9 8 7 7 6 6 6
6 8 9 9 9 9 9 9 8 9 9 9 9 9 8 7 6 6 5 5 5 6 7 5 4 6 6 6 9 8 8 13 13 12 11 10 9 8 7 6 6 5 4
8 9 9 9 9 9 9 9 8 9 10 10 8 9 9 7 7 6 6 6 5 5 6 5 4 4 6 6 9 8 8 12 13 13 12 10 10 9 8 6 6 5 4
8 9 9 9 9 9 9 9 9 10 11 11 10 10 10 9 8 7 6 6 6 5 5 4 3 3 6 6 6 6 6 7 7 12 12 11 10 9 8 7 5 5 4
8 9 9 9 9 9 9 9 11 11 11 12 11 10 11 9 10 8 7 8 7 6 5 5 4 4 5 7 7 7 6 6 6 10 11 11 10 9 8 7 6 4 4
8 8 8 8 9 9 9 10 10 10 11 11 11 11 11 10 10 8 9 8 7 6 5 5 4 3 3 5 5 5 5 4 5 7 10 9 10 9 9 8 7 5 3
8 9 8 8 8 9 10 9 9 9 10 11 10 11 11 11 11 10 9 9 7 7 6 5 5 4 4 5 5 5 4 4 4 4 5 6 8 9 9 9 7 5 4
9 8 8 8 8 7 8 8 9 9 9 9 9 10 11 12 14 11 9 9 9 7 6 6 6 4 4 6 6 5 5 4 3 3 4 3 4 4 5 7 7 5 4
8 8 8 7 7 7 11 12 10 8 9 9 10 9 9 11 12 13 13 12 12 11 9 8 7 7 7 5 5 6 6 5 3 3 4 3 3 3 3 3 5 6 4
7 7 7 7 7 8 12 13 13 10 10 9 9 8 8 8 11 9 10 10 10 13 13 10 9 9 8 8 8 8 7 6 4 4 4 3 2 3 2 4 6 5 4
6 6 7 7 6 8 11 12 11 8 8 8 8 7 7 8 9 9 8 7 7 7 9 8 7 7 6 7 8 7 7 6 5 3 3 3 2 2 2 2 5 5 4
6 6 6 6 6 7 10 11 8 5 5 6 6 6 6 6 9 11 8 8 7 5 5 8 8 7 8 10 9 7 7 7 4 2 1 3 2 2 2 1 2 4 5
6 6 6 6 6 6 8 10 8 3 4 4 3 4 7 7 8 11 10 9 9 7 6 6 6 6 5 7 10 8 8 8 6 3 2 3 3 3 2 1 1 1 2
Wind_Direction
287 284 271 259 251 249 234 231 232 230 223 214 210 211 218 222 217 201 189 193 194 203 206 205 204 205 205 204 203 205 207 207 209 211 215 218 221 226 232 242 251 258 263
281 286 275 261 252 246 237 230 227 233 231 221 215 214 218 219 221 201 186 195 198 202 208 210 210 210 211 208 205 205 208 210 211 215 218 221 223 228 234 241 250 255 260
278 273 275 263 253 252 246 238 232 229 238 231 224 220 222 218 217 209 192 193 198 204 208 214 215 214 215 212 209 209 211 213 215 217 218 224 225 229 236 241 245 249 256
276 270 270 266 256 249 243 237 225 228 234 230 227 226 226 223 217 214 203 196 196 202 209 214 217 219 219 217 214 213 214 215 217 218 220 224 225 229 234 238 243 248 257
271 269 265 265 260 252 245 246 235 224 228 230 232 229 224 225 222 219 213 205 201 199 201 210 215 219 221 219 218 217 216 216 218 220 222 222 223 226 232 238 241 250 258
264 267 264 264 256 250 245 238 237 234 230 225 239 241 233 229 226 223 217 212 206 201 198 203 208 215 217 220 221 221 218 218 219 220 220 221 223 229 233 237 243 251 257
263 259 261 266 253 244 242 241 236 230 232 215 225 254 259 235 226 227 219 210 207 203 198 199 201 203 209 215 218 220 220 219 219 221 221 221 225 229 232 236 242 250 257
263 266 254 257 257 246 241 239 233 230 232 208 191 208 246 251 236 229 220 213 210 202 202 203 202 203 199 199 209 213 218 220 221 223 222 223 226 230 230 235 241 249 256
258 259 253 250 254 245 236 231 229 227 225 222 198 189 202 219 253 231 227 221 214 210 207 204 206 204 200 196 199 207 210 217 221 222 223 223 227 228 231 235 242 249 255
255 255 254 248 249 246 237 231 230 228 220 222 220 223 230 225 205 222 228 225 221 217 210 209 207 205 202 197 195 197 203 210 218 222 223 224 227 229 233 236 241 246 256
255 253 253 249 248 245 240 232 226 230 228 224 222 216 229 243 235 220 229 223 228 223 216 211 206 205 202 197 193 194 196 203 213 219 221 223 226 229 232 234 237 246 255
261 254 253 250 248 244 240 234 224 228 233 230 227 217 210 212 213 221 226 217 227 229 221 216 210 206 202 197 198 192 193 198 206 211 215 221 223 227 230 232 236 244 254
261 257 256 253 250 246 245 241 229 225 228 227 227 226 222 221 216 216 215 221 240 247 231 229 214 204 202 195 195 190 193 194 199 204 206 205 210 219 225 231 234 241 253
256 257 256 255 252 247 248 243 238 229 229 226 228 226 224 222 221 218 214 206 221 248 238 234 218 205 198 193 191 185 193 192 193 196 195 194 197 204 215 221 226 235 245
266 259 254 254 251 249 246 240 236 230 229 226 224 226 225 219 218 222 216 205 200 225 235 228 216 205 194 188 183 186 188 190 190 193 193 191 192 194 199 205 214 219 232
268 265 257 252 251 251 247 242 239 231 230 228 223 225 228 220 217 217 213 214 215 212 236 229 226 207 190 188 184 184 186 183 188 192 192 190 189 190 190 195 208 211 221
266 265 262 254 251 250 249 246 242 233 233 230 225 223 226 219 216 213 212 211 215 211 225 242 229 196 188 181 176 180 180 181 186 191 192 190 187 187 187 189 197 201 201
274 269 266 259 254 253 248 246 246 235 234 231 225 222 225 221 217 213 211 213 214 211 206 220 220 202 197 183 175 177 179 180 181 188 190 189 186 184 184 182 178 179 184
280 274 268 264 258 252 251 246 245 238 234 232 226 224 224 220 218 213 209 209 212 210 202 203 213 208 197 180 172 175 172 172 176 179 185 186 183 179 178 175 171 167 173
284 279 270 266 261 256 253 248 244 243 240 235 229 228 224 219 211 209 210 206 205 201 196 199 202 198 197 178 172 176 175 171 171 162 168 171 174 172 173 171 168 166 165
283 279 274 267 258 255 254 250 243 242 243 240 236 233 227 219 213 212 213 203 200 199 195 198 200 196 198 181 185 180 177 155 147 151 149 165 162 167 172 172 168 164 161
285 282 278 271 263 262 265 262 259 247 247 243 241 236 229 217 213 216 217 216 209 202 199 200 202 196 202 190 179 173 163 156 172 164 145 160 151 162 172 172 164 158 161
284 282 281 274 271 273 275 268 262 257 248 243 240 230 230 217 210 205 207 213 217 216 210 206 198 200 196 191 178 177 175 163 157 156 137 153 156 165 165 158 151 151 159
280 276 275 274 274 277 284 283 270 262 251 243 237 226 224 214 204 199 196 203 209 215 209 207 203 199 192 180 178 176 159 129 102 115 131 142 157 150 132 139 147 149 153
283 281 279 276 276 281 290 291 281 268 261 254 241 225 218 209 199 191 190 195 199 201 193 187 186 179 171 167 161 151 149 144 146 158 139 126 137 117 98 101 131 142 145
283 283 281 275 275 278 290 297 291 268 267 268 251 224 220 215 197 193 192 191 195 192 174 163 165 164 166 161 159 167 166 161 152 155 169 133 136 120 108 62 87 151 147